Location: Hurstbourne Priors
(51.2000°N, 1.3667°W)
Time: 08:00:38
(UTC+00:00)

BREEZE M DEB (TANK) - Visible Passes

Search period start: 11 August 2020 00:00
Search period end: 21 August 2020 00:00
Orbit: 304 x 11871 km, 49.5° (Epoch: 10 August)

Date Brightness Start Highest point End Pass type
(mag) Time Alt. Az. Time Alt. Az. Time Alt. Az.
11 Aug 6.2 02:21:42 18° SSW 02:43:37 43° SSE 02:52:16 10° E visible
12 Aug 6.7 01:27:19 21° S 01:45:07 36° SE 01:55:19 10° E visible
13 Aug 7.1 00:32:53 22° SSE 00:46:17 28° SE 00:57:52 10° E visible
13 Aug 7.3 23:38:23 19° SSE 23:47:18 21° SE 23:59:26 10° E visible
14 Aug 5.3 03:29:19 12° SW 03:54:16 62° SSE 04:00:55 10° E visible
14 Aug 7.6 22:43:50 13° SE 22:48:26 14° ESE 22:58:20 10° E visible
15 Aug 5.8 02:34:44 20° SW 02:56:19 53° SSE 03:04:22 10° E visible
16 Aug 6.3 01:40:06 25° SSW 01:57:57 45° SSE 02:07:37 10° E visible
17 Aug 6.8 00:45:24 27° S 00:59:11 37° SE 01:10:34 10° E visible
17 Aug 7.2 23:50:38 26° SSE 00:00:08 29° SE 00:12:58 10° E visible
18 Aug 5.0 03:41:31 11° WSW 04:06:30 71° SSE 04:12:41 10° E visible
18 Aug 7.3 22:55:49 21° SE 23:00:58 22° SE 23:14:22 10° E visible
19 Aug 5.5 02:46:41 19° SW 03:08:40 63° SSE 03:16:09 10° E visible
19 Aug 7.6 22:00:56 14° ESE 22:02:01 14° ESE 22:13:07 10° E visible
20 Aug 6.0 01:51:47 26° SSW 02:10:28 54° SSE 02:19:29 10° ENE visible
